Flag for U.S.A. Weather past 2 weeks in Port St. Lucie, Florida, U.S.A.

Now
77 °F

Passing clouds.


Feels Like: 78 °F
Forecast: 75 / 89 °F
Wind: No wind

Location: Witham Field Airport

Current Time: Jul 30, 2014 at 8:07:14 AM

Latest Report: Jul 30, 2014 at 6:50 AM


Visibility: 7 mi

Pressure: 29.97 "Hg

Humidity: 94%

Dew point: 75 °F

Location of Port St. LucieLocation

Historic Weather in Port St. Lucie — Graph

°F

Port St. Lucie temperature yesterday

Maximum temperature yesterday: 91 °F (at 1:47 PM)
Minimum temperature yesterday: 77 °F (at 4:55 AM)
Average temperature yesterday: 80 °F

Past Weeks' High & Low Weather Summary

 TemperatureHumidityPressure
High91 °F (Jul 28, 1:47 PM)100% (Jul 16, 11:55 PM)30.12 "Hg (Jul 16, 11:55 PM)
Low73 °F (Jul 16, 6:50 AM)49% (Jul 25, 12:50 PM)27.24 "Hg (Jul 24, 7:47 AM)
Average80 °F83%30.04 "Hg
* Reported Jul 15 6:50 AM — Jul 30 6:50 AM, Port St. Lucie, Weather by CustomWeather, © 2014

Note: Actual official high and low records may vary slightly from our data, if they occured in-between our weather recording intervals... More about our weather records

Advertising

Port St. Lucie weather history for previous 24 hours

 ConditionsComfort  
Time TempWeatherWind HumidityBarometerVisibility
6:50 AM
Jul 30
77 °FPassing clouds.No wind94%29.97 "Hg7 mi
6:15 AM77 °FClear.No wind89%29.97 "Hg10 mi
5:55 AM75 °FClear.3 mph94%29.97 "Hg10 mi
5:35 AM77 °FClear.No wind89%29.96 "Hg10 mi
5:15 AM77 °FClear.3 mph89%29.96 "Hg10 mi
4:55 AM77 °FClear.3 mph89%29.96 "Hg10 mi
4:35 AM77 °FClear.No wind89%29.96 "Hg10 mi
4:15 AM77 °FClear.No wind89%29.96 "Hg10 mi
3:55 AM77 °FClear.No wind89%29.96 "Hg10 mi
3:35 AM77 °FClear.No wind89%29.96 "Hg10 mi
2:55 AM77 °FClear.5 mph89%29.97 "Hg10 mi
2:35 AM77 °FClear.6 mph89%29.97 "Hg10 mi
2:15 AM79 °FClear.8 mph84%29.98 "Hg10 mi
1:55 AM79 °FClear.6 mph84%29.98 "Hg10 mi
1:35 AM79 °FClear.6 mph84%29.98 "Hg10 mi
1:15 AM79 °FClear.5 mph84%29.99 "Hg10 mi
12:55 AM79 °FClear.3 mph84%29.99 "Hg10 mi
12:35 AM79 °FClear.5 mph84%29.99 "Hg10 mi
12:15 AM79 °FClear.No wind84%30.00 "Hg10 mi
11:55 PM
Jul 29
79 °FClear.No wind84%29.99 "Hg10 mi
11:35 PM79 °FClear.No wind84%30.00 "Hg10 mi
10:55 PM79 °FClear.3 mph84%29.99 "Hg10 mi
10:35 PM79 °FClear.3 mph84%29.98 "Hg10 mi
10:15 PM79 °FClear.3 mph84%29.97 "Hg10 mi
9:55 PM79 °FClear.No wind79%29.98 "Hg10 mi
9:35 PM79 °FClear.5 mph79%29.98 "Hg10 mi
9:15 PM79 °FPassing clouds.5 mph79%29.98 "Hg10 mi
8:55 PM79 °FBroken clouds.5 mph79%29.98 "Hg10 mi
8:35 PM79 °FScattered clouds.5 mph79%29.99 "Hg10 mi
6:55 PM81 °FThundershowers. Partly sunny.6 mph74%29.99 "Hg7 mi
5:47 PM81 °FThundershowers. Broken clouds.No wind79%29.98 "Hg7 mi
4:47 PM81 °FBroken clouds.No wind74%29.97 "Hg7 mi
3:47 PM82 °FThundershowers. Broken clouds.8 mph58%29.97 "Hg7 mi
2:55 PM81 °FThundershowers. Broken clouds.12 mph62%29.99 "Hg7 mi
1:47 PM91 °FBroken clouds.14 mph52%29.99 "Hg7 mi
12:47 PM90 °FBroken clouds.9 mph59%29.99 "Hg7 mi
11:47 AM90 °FBroken clouds.9 mph59%30.01 "Hg7 mi
10:47 AM88 °FBroken clouds.14 mph62%30.01 "Hg7 mi
9:47 AM84 °FBroken clouds.9 mph74%30.00 "Hg7 mi
8:47 AM82 °FScattered clouds.8 mph84%30.00 "Hg7 mi
Weather by CustomWeather, © 2014

See weather overviewHow to use our weather pages